Time,TemperatureF,DewpointF,PressureIn,WindDirection,WindDirectionDegrees,WindSpeedMPH,WindSpeedGustMPH,Humidity,HourlyPrecipIn,Conditions,Clouds,dailyrainin,SoftwareType,DateUTC
2013-05-10 00:00:00,49.0,46.0,-100.00,NNW,338,4.0,-999.0,89,0.00,,,-99.99,,2013-05-10 07:00:00,
2013-05-10 00:22:00,49.0,46.0,-100.00,NNW,338,4.0,-999.0,89,0.00,,,-99.99,,2013-05-10 07:22:00,
2013-05-10 00:32:00,49.0,46.0,-100.00,NNW,338,4.0,-999.0,89,0.00,,,-99.99,,2013-05-10 07:32:00,
2013-05-10 00:42:00,49.0,46.0,-100.00,NNW,338,4.0,-999.0,89,0.00,,,-99.99,,2013-05-10 07:42:00,
2013-05-10 00:52:00,49.0,46.0,-100.00,NNW,338,4.0,-999.0,89,0.00,,,-99.99,,2013-05-10 07:52:00,
2013-05-10 01:00:00,48.0,46.0,-100.00,NNW,343,5.0,-999.0,91,0.00,,,-99.99,,2013-05-10 08:00:00,
2013-05-10 01:22:00,48.0,46.0,-100.00,NNW,343,5.0,-999.0,91,0.00,,,-99.99,,2013-05-10 08:22:00,
2013-05-10 01:32:00,48.0,46.0,-100.00,NNW,343,5.0,-999.0,91,0.00,,,-99.99,,2013-05-10 08:32:00,
2013-05-10 01:42:00,48.0,46.0,-100.00,NNW,343,5.0,-999.0,91,0.00,,,-99.99,,2013-05-10 08:42:00,
2013-05-10 01:52:00,48.0,46.0,-100.00,NNW,343,5.0,-999.0,91,0.00,,,-99.99,,2013-05-10 08:52:00,
2013-05-10 02:00:00,48.0,46.0,-100.00,North,354,2.0,-999.0,93,0.00,,,-99.99,,2013-05-10 09:00:00,
2013-05-10 02:21:00,48.0,46.0,-100.00,North,354,2.0,-999.0,93,0.00,,,-99.99,,2013-05-10 09:21:00,
2013-05-10 02:33:00,48.0,46.0,-100.00,North,354,2.0,-999.0,93,0.00,,,-99.99,,2013-05-10 09:33:00,
2013-05-10 02:43:00,48.0,46.0,-100.00,North,354,2.0,-999.0,93,0.00,,,-99.99,,2013-05-10 09:43:00,
2013-05-10 02:52:00,48.0,46.0,-100.00,North,354,2.0,-999.0,93,0.00,,,-99.99,,2013-05-10 09:52:00,
2013-05-10 03:00:00,47.0,45.0,-100.00,NNW,339,2.0,-999.0,93,0.00,,,-99.99,,2013-05-10 10:00:00,
2013-05-10 03:33:00,47.0,45.0,-100.00,NNW,339,2.0,-999.0,93,0.00,,,-99.99,,2013-05-10 10:33:00,
2013-05-10 03:42:00,47.0,45.0,-100.00,NNW,339,2.0,-999.0,93,0.00,,,-99.99,,2013-05-10 10:42:00,
2013-05-10 03:52:00,47.0,45.0,-100.00,NNW,339,2.0,-999.0,93,0.00,,,-99.99,,2013-05-10 10:52:00,
2013-05-10 04:00:00,46.0,45.0,-100.00,WNW,303,0.0,-999.0,93,0.00,,,-99.99,,2013-05-10 11:00:00,
2013-05-10 04:22:00,46.0,45.0,-100.00,WNW,303,0.0,-999.0,93,0.00,,,-99.99,,2013-05-10 11:22:00,
2013-05-10 04:32:00,46.0,45.0,-100.00,WNW,303,0.0,-999.0,93,0.00,,,-99.99,,2013-05-10 11:32:00,
2013-05-10 04:42:00,46.0,45.0,-100.00,WNW,303,0.0,-999.0,93,0.00,,,-99.99,,2013-05-10 11:42:00,
2013-05-10 04:51:00,46.0,45.0,-100.00,WNW,303,0.0,-999.0,93,0.00,,,-99.99,,2013-05-10 11:51:00,
2013-05-10 05:00:00,45.0,44.0,-100.00,SE,129,1.0,-999.0,94,0.00,,,-99.99,,2013-05-10 12:00:00,
2013-05-10 05:22:00,45.0,44.0,-100.00,SE,129,1.0,-999.0,94,0.00,,,-99.99,,2013-05-10 12:22:00,
2013-05-10 05:32:00,45.0,44.0,-100.00,SE,129,1.0,-999.0,94,0.00,,,-99.99,,2013-05-10 12:32:00,
2013-05-10 05:42:00,45.0,44.0,-100.00,SE,129,1.0,-999.0,94,0.00,,,-99.99,,2013-05-10 12:42:00,
2013-05-10 05:52:00,45.0,44.0,-100.00,SE,129,1.0,-999.0,94,0.00,,,-99.99,,2013-05-10 12:52:00,
2013-05-10 06:00:00,44.0,43.0,-100.00,SSE,162,2.0,-999.0,94,0.00,,,-99.99,,2013-05-10 13:00:00,
2013-05-10 06:21:00,44.0,43.0,-100.00,SSE,162,2.0,-999.0,94,0.00,,,-99.99,,2013-05-10 13:21:00,
2013-05-10 06:32:00,44.0,43.0,-100.00,SSE,162,2.0,-999.0,94,0.00,,,-99.99,,2013-05-10 13:32:00,
2013-05-10 06:42:00,44.0,43.0,-100.00,SSE,162,2.0,-999.0,94,0.00,,,-99.99,,2013-05-10 13:42:00,
2013-05-10 06:52:00,44.0,43.0,-100.00,SSE,162,2.0,-999.0,94,0.00,,,-99.99,,2013-05-10 13:52:00,
2013-05-10 15:22:00,79.0,53.0,-100.00,ENE,78,1.0,-999.0,41,0.00,,,-99.99,,2013-05-10 22:22:00,
2013-05-10 15:32:00,79.0,53.0,-100.00,ENE,78,1.0,-999.0,41,0.00,,,-99.99,,2013-05-10 22:32:00,
2013-05-10 16:22:00,75.0,52.0,-100.00,WSW,246,1.0,-999.0,43,0.00,,,-99.99,,2013-05-10 23:22:00,
2013-05-10 16:33:00,75.0,52.0,-100.00,WSW,246,1.0,-999.0,43,0.00,,,-99.99,,2013-05-10 23:33:00,
2013-05-10 17:22:00,79.0,53.0,-100.00,North,354,1.0,-999.0,40,0.00,,,-99.99,,2013-05-11 00:22:00,
2013-05-10 17:32:00,79.0,53.0,-100.00,North,354,1.0,-999.0,40,0.00,,,-99.99,,2013-05-11 00:32:00,
2013-05-10 18:21:00,75.0,52.0,-100.00,NNW,340,4.0,-999.0,45,0.00,,,-99.99,,2013-05-11 01:21:00,
2013-05-10 18:32:00,75.0,52.0,-100.00,NNW,340,4.0,-999.0,45,0.00,,,-99.99,,2013-05-11 01:32:00,
2013-05-10 19:22:00,72.0,53.0,-100.00,NW,322,2.0,-999.0,49,0.00,,,-99.99,,2013-05-11 02:22:00,
2013-05-10 19:32:00,72.0,53.0,-100.00,NW,322,2.0,-999.0,49,0.00,,,-99.99,,2013-05-11 02:32:00,
2013-05-10 20:21:00,70.0,51.0,-100.00,NNW,344,2.0,-999.0,51,0.00,,,-99.99,,2013-05-11 03:21:00,
2013-05-10 20:33:00,70.0,51.0,-100.00,NNW,344,2.0,-999.0,51,0.00,,,-99.99,,2013-05-11 03:33:00,
2013-05-10 21:23:00,66.0,51.0,-100.00,NNW,342,6.0,-999.0,57,0.00,,,-99.99,,2013-05-11 04:23:00,
2013-05-10 21:33:00,66.0,51.0,-100.00,NNW,342,6.0,-999.0,57,0.00,,,-99.99,,2013-05-11 04:33:00,
2013-05-10 22:22:00,63.0,48.0,-100.00,NNW,336,5.0,-999.0,57,0.00,,,-99.99,,2013-05-11 05:22:00,
2013-05-10 22:32:00,63.0,48.0,-100.00,NNW,336,5.0,-999.0,57,0.00,,,-99.99,,2013-05-11 05:32:00,
2013-05-10 23:22:00,60.0,47.0,-100.00,NNW,344,4.0,-999.0,62,0.00,,,-99.99,,2013-05-11 06:22:00,
2013-05-10 23:32:00,60.0,47.0,-100.00,NNW,344,4.0,-999.0,62,0.00,,,-99.99,,2013-05-11 06:32:00,